Date String (YYYY-MM-DD hh:mm:ss) UTC,Instrument flags,Ambient pressure (hPa),Sample flow (lpm),Bypass flow (lpm),Sample temperature (°C),Ambient temperature (°C),ASC tube jacket temperature (°C),LED temperature (°C),Box temperature (°C),Sample RH (%),Span deviation,Mass concentration (μg/m³),Mass concentration (μg/m³),Mass concentration (μg/m³)
DateTimeUTC,F1_M11,P_M11,Q1_M11,Q2_M11,T1_M11,T2_M11,T3_M11,T4_M11,T5_M11,U1_M11,ZSPAN_M11,X0_M11,X2_M11,X1_M11
2023-01-28 15:00:00,,0818.9,4.98,0.00,21.6,20.3,00.0,30.6,23.3,13.0,0000.0,0007.28,0004.80,0004.62
2023-01-28 15:01:00,,0818.9,5.00,0.00,21.6,20.2,00.0,30.5,23.3,13.1,0000.0,0007.39,0004.91,0004.73
2023-01-28 15:02:00,,0818.9,5.00,0.00,21.6,20.2,00.0,30.5,23.3,13.2,0000.0,0007.43,0005.01,0004.84
2023-01-28 15:03:00,,0818.9,5.02,0.00,21.6,20.1,00.0,30.5,23.3,13.3,0000.0,0007.49,0005.11,0004.95
2023-01-28 15:04:00,,0818.9,5.02,0.00,21.6,20.1,00.0,30.5,23.2,13.4,0000.0,0007.59,0005.20,0005.03
2023-01-28 15:05:00,,0818.9,5.00,0.00,21.6,20.0,00.0,30.5,23.3,13.4,0000.0,0007.61,0005.28,0005.12
2023-01-28 15:06:00,,0818.9,5.00,0.00,21.6,20.0,00.0,30.5,23.2,13.3,0000.0,0007.97,0005.36,0005.21
2023-01-28 15:07:00,,0818.9,5.02,0.00,21.6,21.0,00.0,30.5,23.4,13.3,0000.0,0008.15,0005.45,0005.30
2023-01-28 15:08:00,,0819.0,5.01,0.00,21.7,22.2,00.0,30.5,23.7,13.3,0000.0,0008.26,0005.55,0005.38
2023-01-28 15:09:00,,0819.0,5.00,0.00,21.8,22.2,00.0,30.5,23.8,13.1,0000.0,0008.35,0005.61,0005.44
2023-01-28 15:10:00,,0819.0,5.01,0.00,21.8,21.6,00.0,30.6,23.7,12.9,0000.0,0008.39,0005.66,0005.49
2023-01-28 15:11:00,,0819.0,5.00,0.00,21.8,21.0,00.0,30.6,23.5,13.0,0000.0,0008.61,0005.73,0005.56
2023-01-28 15:12:00,,0819.0,5.00,0.00,21.8,20.6,00.0,30.6,23.4,13.2,0000.0,0009.25,0005.80,0005.62
2023-01-28 15:13:00,,0819.1,5.00,0.00,21.7,20.4,00.0,30.6,23.4,13.3,0000.0,0009.37,0005.88,0005.68
2023-01-28 15:14:00,,0819.1,4.99,0.00,21.7,20.3,00.0,30.6,23.3,13.4,0000.0,0009.46,0005.97,0005.76
2023-01-28 15:15:00,,0819.1,5.00,0.00,21.7,20.1,00.0,30.6,23.3,13.5,0000.0,0009.50,0006.05,0005.85
2023-01-28 15:16:00,,0819.1,4.99,0.00,21.7,20.0,00.0,30.6,23.3,13.5,0000.0,0009.56,0006.13,0005.93
2023-01-28 15:17:00,,0819.2,5.00,0.00,21.6,20.0,00.0,30.6,23.3,13.5,0000.0,0009.43,0006.24,0006.02
2023-01-28 15:18:00,,0819.2,4.99,0.00,21.6,19.9,00.0,30.6,23.2,13.5,0000.0,0009.32,0006.32,0006.11
2023-01-28 15:19:00,,0819.3,5.01,0.00,21.6,20.7,00.0,30.6,23.4,13.6,0000.0,0009.38,0006.40,0006.21
2023-01-28 15:20:00,,0819.3,5.02,0.00,21.8,22.0,00.0,30.6,23.7,13.5,0000.0,0009.38,0006.47,0006.29
2023-01-28 15:21:00,,0819.3,4.99,0.00,21.9,22.4,00.0,30.6,23.9,13.5,0000.0,0009.43,0006.54,0006.36
2023-01-28 15:22:00,,0819.3,5.01,0.00,21.9,21.9,00.0,30.6,23.8,13.4,0000.0,0009.49,0006.61,0006.43
2023-01-28 15:23:00,,0819.2,5.00,0.00,21.9,21.4,00.0,30.7,23.7,13.4,0000.0,0008.88,0006.68,0006.50
2023-01-28 15:24:00,,0819.2,4.99,0.00,21.9,21.1,00.0,30.7,23.7,13.5,0000.0,0008.94,0006.73,0006.54
2023-01-28 15:25:00,,0819.2,4.99,0.00,21.9,20.8,00.0,30.7,23.6,13.5,0000.0,0009.05,0006.76,0006.57
2023-01-28 15:26:00,,0819.2,5.01,0.00,21.8,20.6,00.0,30.7,23.5,13.6,0000.0,0009.05,0006.77,0006.59
2023-01-28 15:27:00,,0819.2,4.97,0.00,21.8,20.5,00.0,30.7,23.5,13.7,0000.0,0009.07,0006.78,0006.60
2023-01-28 15:28:00,,0819.2,4.99,0.00,21.8,20.4,00.0,30.7,23.5,13.7,0000.0,0009.09,0006.79,0006.61
2023-01-28 15:29:00,,0819.2,4.99,0.00,21.8,20.3,00.0,30.7,23.4,13.7,0000.0,0009.09,0006.80,0006.62
2023-01-28 15:30:00,,0819.2,5.00,0.00,21.8,20.3,00.0,30.7,23.4,13.7,0000.0,0009.07,0006.82,0006.63
2023-01-28 15:31:00,,0819.3,4.99,0.00,21.8,20.2,00.0,30.7,23.4,13.8,0000.0,0009.06,0006.82,0006.63
2023-01-28 15:32:00,,0819.3,5.00,0.00,21.7,20.2,00.0,30.7,23.4,13.9,0000.0,0009.09,0006.83,0006.64
2023-01-28 15:33:00,,0819.3,5.01,0.00,21.7,20.2,00.0,30.7,23.4,13.9,0000.0,0009.08,0006.83,0006.64
2023-01-28 15:34:00,,0819.3,4.99,0.00,21.7,20.2,00.0,30.7,23.4,13.9,0000.0,0009.01,0006.80,0006.63
2023-01-28 15:35:00,,0819.3,5.01,0.00,21.7,20.8,00.0,30.6,23.5,13.8,0000.0,0008.90,0006.75,0006.61
2023-01-28 15:36:00,,0819.2,5.00,0.00,21.9,22.1,00.0,30.6,23.8,13.7,0000.0,0008.74,0006.71,0006.59
2023-01-28 15:37:00,,0819.3,4.99,0.00,22.0,22.5,00.0,30.7,24.0,13.7,0000.0,0008.67,0006.68,0006.57
2023-01-28 15:38:00,,0819.3,5.01,0.00,22.0,22.0,00.0,30.7,24.0,13.7,0000.0,0008.66,0006.66,0006.55
2023-01-28 15:39:00,,0819.3,5.02,0.00,22.0,21.6,00.0,30.8,23.9,13.7,0000.0,0008.62,0006.64,0006.53
2023-01-28 15:40:00,,0819.3,4.99,0.00,22.0,21.3,00.0,30.8,23.8,13.7,0000.0,0008.61,0006.63,0006.51
2023-01-28 15:41:00,,0819.3,5.01,0.00,22.0,21.1,00.0,30.8,23.8,13.8,0000.0,0008.64,0006.60,0006.47
2023-01-28 15:42:00,,0819.3,4.98,0.00,22.0,20.9,00.0,30.8,23.7,13.8,0000.0,0008.66,0006.59,0006.45
2023-01-28 15:43:00,,0819.2,4.99,0.00,22.0,20.8,00.0,30.8,23.7,13.9,0000.0,0008.62,0006.56,0006.43
2023-01-28 15:44:00,,0819.3,4.96,0.00,22.0,20.7,00.0,30.8,23.7,13.9,0000.0,0008.59,0006.55,0006.42
2023-01-28 15:45:00,,0819.3,5.01,0.00,22.0,20.7,00.0,30.8,23.7,13.9,0000.0,0008.58,0006.55,0006.41
2023-01-28 15:46:00,,0819.3,5.00,0.00,22.0,20.7,00.0,30.8,23.7,14.0,0000.0,0008.59,0006.56,0006.43
2023-01-28 15:47:00,,0819.2,5.01,0.00,22.0,20.6,00.0,30.8,23.7,14.0,0000.0,0008.60,0006.57,0006.43
2023-01-28 15:48:00,,0819.2,5.01,0.00,22.0,20.6,00.0,30.8,23.7,14.1,0000.0,0008.68,0006.59,0006.43
2023-01-28 15:49:00,,0819.3,4.98,0.00,22.0,20.6,00.0,30.8,23.7,14.1,0000.0,0008.72,0006.61,0006.44
2023-01-28 15:50:00,,0819.4,5.00,0.00,22.0,20.6,00.0,30.8,23.7,14.1,0000.0,0008.71,0006.62,0006.45
2023-01-28 15:51:00,,0819.4,5.00,0.00,22.0,20.5,00.0,30.8,23.7,14.1,0000.0,0008.67,0006.61,0006.46
2023-01-28 15:52:00,,0819.4,5.00,0.00,21.9,20.5,00.0,30.8,23.7,14.0,0000.0,0008.61,0006.62,0006.47
2023-01-28 15:53:00,,0819.3,4.99,0.00,21.9,20.4,00.0,30.8,23.6,14.0,0000.0,0008.56,0006.61,0006.47
2023-01-28 15:54:00,,0819.3,5.00,0.00,21.9,20.8,00.0,30.8,23.7,14.0,0000.0,0008.54,0006.61,0006.48
2023-01-28 15:55:00,,0819.4,5.00,0.00,22.0,22.0,00.0,30.8,24.0,14.0,0000.0,0008.54,0006.61,0006.48
2023-01-28 15:56:00,,0819.4,5.00,0.00,22.2,22.7,00.0,30.8,24.2,13.9,0000.0,0008.54,0006.62,0006.49
2023-01-28 15:57:00,,0819.4,4.99,0.00,22.2,22.3,00.0,30.9,24.2,13.9,0000.0,0008.56,0006.62,0006.49
2023-01-28 15:58:00,,0819.4,5.01,0.00,22.2,21.9,00.0,30.9,24.1,13.8,0000.0,0008.56,0006.61,0006.47
2023-01-28 15:59:00,,0819.4,5.00,0.00,22.2,21.5,00.0,30.9,24.1,13.8,0000.0,0008.48,0006.59,0006.47
